1281225626538,3.23418
1281225686538,3.23180
1281225746538,3.24828
1281225806538,3.23356
1281225866538,3.24446
1281225926538,3.20218
1281225986538,3.22222
1281226046538,3.23053
1281226106538,3.22104
1281226166538,3.20516
1281226226538,3.23876
1281226286538,3.21413
1281226346538,3.23475
1281226406538,3.22810
1281226466538,3.25929
1281226526538,3.24567
1281226586538,3.24473
1281226646538,3.21496
1281226706538,3.23219
1281226766538,3.22950
1281226826538,3.23295
1281226886538,3.23425
1281226946538,3.25841
1281227006538,3.25339
1281227066538,3.23786
1281227126538,3.23173
1281227186538,3.22956
1281227246538,3.19354
1281227306538,3.19204
1281227366538,3.21887
1281227426538,3.22332
1281227486538,3.21605
1281227546538,3.21354
1281227606538,3.25395
1281227666538,3.20440
1281227726538,3.23288
1281227786538,3.22109
1281227846538,3.22288
1281227906538,3.24127
1281227966538,3.22680
1281228026538,3.23251
1281228086538,3.18156
1281228146538,3.22711
1281228206538,3.23759
1281228266538,3.20682
1281228326538,3.25931
1281228386538,3.25414
1281228446538,3.23554
1281228506538,3.21664
1281228566538,3.22026
1281228626538,3.21114
1281228686538,3.21004
1281228746538,3.23700
1281228806538,3.22899
1281228866538,3.21966
1281228926538,3.21471
1281228986538,3.21711
1281229046538,3.22794
1281229106538,3.24943
1281229166538,3.23668
1281229226548,3.23978
1281229286548,3.21926
1281229346548,3.21209
1281229406548,3.24971
1281229466548,3.17389
1281229526548,3.25381
1281229586548,3.21291
1281229646548,3.22373
1281229706548,3.17889
1281229766548,3.21923
1281229826548,3.18800
1281229886548,3.21817
1281229946548,3.19633
1281230006548,3.21708
1281230066548,3.22366
1281230126548,3.25511
1281230186548,3.22750
1281230246548,3.23874
1281230306548,3.25719
1281230366548,3.21514
1281230426548,3.22633
1281230486548,3.24069
1281230546548,3.24291
1281230606548,3.22460
1281230666548,3.22532
1281230726548,3.26926
1281230786548,3.21930
1281230846548,3.22815
1281230906548,3.21797
1281230966548,3.23743
1281231026548,3.22490
1281231086548,3.22198
1281231146548,3.22718
1281231206548,3.22711
1281231266548,3.23717
1281231326548,3.22891
1281231386548,3.21432
1281231446548,3.25729
1281231506548,3.20824
1281231566548,3.24517
1281231626548,3.23050
1281231686548,3.24993
1281231746548,3.24048
1281231806548,3.21800
1281231866548,3.24956
1281231926548,3.24353
1281231986548,3.24576
1281232046548,3.23714
1281232106548,3.23693
1281232166548,3.24551
1281232226548,3.25371
1281232286548,3.24820
1281232346548,3.25590
1281232406548,3.25292
1281232466548,3.23503
1281232526548,3.28667
1281232586548,3.23766
1281232646548,3.24089
1281232706548,3.23787
1281232766548,3.24119
1281232826557,3.26437
1281232886557,3.27668
1281232946557,3.23611
1281233006557,3.27165
1281233066557,3.24673
1281233126557,3.25729
1281233186557,3.26082
1281233246557,3.26101
1281233306557,3.26295
1281233366557,3.25827
1281233426557,3.24222
1281233486557,3.25268
1281233546557,3.24426
1281233606557,3.24315
1281233666557,3.27805
1281233726557,3.25067
1281233786557,3.24842
1281233846557,3.28938
1281233906557,3.27500
1281233966557,3.25583
1281234026557,3.25875
1281234086557,3.26348
1281234146557,3.27272
1281234206557,3.27561
1281234266557,3.26143
1281234326557,3.27596
1281234386557,3.26621
1281234446557,3.25222
1281234506557,3.27169
1281234566557,3.27547
1281234626557,3.24768
1281234686557,3.28767
1281234746557,3.29207
1281234806557,3.27359
1281234866557,3.30202
1281234926557,3.25777
1281234986557,3.27025
1281235046557,3.28810
1281235106557,3.27039
1281235166557,3.30124
1281235226557,3.30101
1281235286557,3.28140
1281235346557,3.26261
1281235406557,3.25872
1281235466557,3.26581
1281235526557,3.26991
1281235586557,3.26583
1281235646557,3.28101
1281235706557,3.28897
1281235766557,3.28957
1281235826557,3.31375
1281235886557,3.27651
1281235946557,3.25515
1281236006557,3.31511
1281236066557,3.29218
1281236126557,3.25606
1281236186557,3.27487
1281236246557,3.29385
1281236306557,3.26875
1281236366557,3.27532
1281236426566,3.26153
1281236486566,3.26485
1281236546566,3.27411
1281236606566,3.29368
1281236666566,3.29533
1281236726566,3.26164
1281236786566,3.28864
1281236846566,3.25978
1281236906566,3.26665
1281236966566,3.27959
1281237026566,3.28483
1281237086566,3.27229
1281237146566,3.28765
1281237206566,3.28346
1281237266566,3.31142
1281237326566,3.29070
1281237386566,3.29594
1281237446566,3.28202
1281237506566,3.30010
1281237566566,3.29814
1281237626566,3.24353
1281237686566,3.29490
1281237746566,3.27580
1281237806566,3.30821
1281237866566,3.27729
1281237926566,3.29168
1281237986566,3.28773
1281238046566,3.29182
1281238106566,3.24946
1281238166566,3.30274
1281238226566,3.25271
1281238286566,3.29519
1281238346566,3.27595
1281238406566,3.28923
1281238466566,3.28727
1281238526566,3.28743
1281238586566,3.27314
1281238646566,3.29532
1281238706566,3.28906
1281238766566,3.31897
1281238826566,3.25079
1281238886566,3.32324
1281238946566,3.28306
1281239006566,3.28238
1281239066566,3.27860
1281239126566,3.27143
1281239186566,3.29385
1281239246566,3.29927
1281239306566,3.30003
1281239366566,3.27048
1281239426566,3.30147
1281239486566,3.29239
1281239546566,3.26981
1281239606566,3.29794
1281239666566,3.29667
1281239726566,3.29189
1281239786566,3.26997
1281239846566,3.27940
1281239906566,3.29634
1281239966566,3.30261
1281240026575,3.32171
1281240086575,3.30087
1281240146575,3.29590
1281240206575,3.29714
1281240266575,3.28497
1281240326575,3.27631
1281240386575,3.30890
1281240446575,3.29347
1281240506575,3.27864
1281240566575,3.31943
1281240626575,3.30891
1281240686575,3.27779
1281240746575,3.29327
1281240806575,3.26468
1281240866575,3.29048
1281240926575,3.27964
1281240986575,3.29904
1281241046575,3.28234
1281241106575,3.27104
1281241166575,3.29102
1281241226575,3.28225
1281241286575,3.29235
1281241346575,3.29972
1281241406575,3.26117
1281241466575,3.29382
1281241526575,3.28989
1281241586575,3.29286
1281241646575,3.30381
1281241706575,3.29030
1281241766575,3.30414
1281241826575,3.28373
1281241886575,3.31044
1281241946575,3.28555
1281242006575,3.29610
1281242066575,3.26796
1281242126575,3.29446
1281242186575,3.30492
1281242246575,3.30551
1281242306575,3.34103
1281242366575,3.29341
1281242426575,3.29241
1281242486575,3.28851
1281242546575,3.31439
1281242606575,3.27244
1281242666575,3.31655
1281242726575,3.28893
1281242786575,3.28260
1281242846575,3.30786
1281242906575,3.28885
1281242966575,3.31509
1281243026575,3.31870
1281243086575,3.29433
1281243146575,3.31282
1281243206575,3.28897
1281243266575,3.29131
1281243326575,3.30025
1281243386575,3.30141
1281243446575,3.33560
1281243506575,3.29407
1281243566575,3.28834
1281243626584,3.32453
1281243686584,3.29693
1281243746584,3.31933
1281243806584,3.28942
1281243866584,3.30195
1281243926584,3.29840
1281243986584,3.29319
1281244046584,3.30099
1281244106584,3.31441
1281244166584,3.32225
1281244226584,3.32621
1281244286584,3.31130
1281244346584,3.30041
1281244406584,3.32567
1281244466584,3.30831
1281244526584,3.32167
1281244586584,3.29541
1281244646584,3.31444
1281244706584,3.29411
1281244766584,3.29983
1281244826584,3.29212
1281244886584,3.30605
1281244946584,3.29482
1281245006584,3.33711
1281245066584,3.28130
1281245126584,3.31015
1281245186584,3.33020
1281245246584,3.27534
1281245306584,3.28860
1281245366584,3.30698
1281245426584,3.33152
1281245486584,3.30987
1281245546584,3.30702
1281245606584,3.30853
1281245666584,3.29623
1281245726584,3.32951
1281245786584,3.30211
1281245846584,3.30159
1281245906584,3.30570
1281245966584,3.30648
1281246026584,3.29359
1281246086584,3.31886
1281246146584,3.30779
1281246206584,3.33859
1281246266584,3.35114
1281246326584,3.29726
1281246386584,3.27567
1281246446584,3.34288
1281246506584,3.31493
1281246566584,3.32111
1281246626584,3.32063
1281246686584,3.29808
1281246746584,3.30811
1281246806584,3.32701
1281246866584,3.30163
1281246926584,3.27949
1281246986584,3.31149
1281247046584,3.28698
1281247106584,3.32356
1281247166584,3.31829
1281247226593,3.31414
1281247286593,3.28398
1281247346593,3.31696
1281247406593,3.30513
1281247466593,3.31230
1281247526593,3.29811
1281247586593,3.29290
1281247646593,3.32080
1281247706593,3.30312
1281247766593,3.27222
1281247826593,3.34621
1281247886593,3.31632
1281247946593,3.33882
1281248006593,3.30872
1281248066593,3.31627
1281248126593,3.33587
1281248186593,3.30699
1281248246593,3.30923
1281248306593,3.31555
1281248366593,3.30451
1281248426593,3.30142
1281248486593,3.33938
1281248546593,3.32176
1281248606593,3.35136
1281248666593,3.34741
1281248726593,3.32366
1281248786593,3.33109
1281248846593,3.33188
1281248906593,3.29275
1281248966593,3.31187
1281249026593,3.33953
1281249086593,3.33227
1281249146593,3.32937
1281249206593,3.32052
1281249266593,3.31699
1281249326593,3.33874
1281249386593,3.33617
1281249446593,3.32852
1281249506593,3.32988
1281249566593,3.30299
1281249626593,3.32082
1281249686593,3.34460
1281249746593,3.33653
1281249806593,3.31160
1281249866593,3.32068
1281249926593,3.31611
1281249986593,3.34910
1281250046593,3.30451
1281250106593,3.31232
1281250166593,3.33833
1281250226593,3.33802
1281250286593,3.33600
1281250346593,3.37068
1281250406593,3.31396
1281250466593,3.31594
1281250526593,3.34193
1281250586593,3.29743
1281250646593,3.29816
1281250706593,3.34922
1281250766593,3.36187
1281250826602,3.31623
1281250886602,3.32222
1281250946602,3.35892
1281251006602,3.34633
1281251066602,3.31406
1281251126601,3.32649
1281251186601,3.31071
1281251246601,3.31738
1281251306601,3.33723
1281251366601,3.31643
1281251426601,3.33179
1281251486601,3.31537
1281251546601,3.29687
1281251606601,3.31207
1281251666602,3.31519
1281251726602,3.34840
1281251786601,3.31368
1281251846601,3.31583
1281251906601,3.34113
1281251966602,3.36987
1281252026602,3.32257
1281252086602,3.33326
1281252146602,3.31450
1281252206602,3.32472
1281252266602,3.34532
1281252326602,3.32991
1281252386602,3.32358
1281252446601,3.31995
1281252506601,3.30166
1281252566601,3.33987
1281252626601,3.34946
1281252686601,3.32203
1281252746601,3.30931
1281252806601,3.34363
1281252866601,3.33543
1281252926601,3.29590
1281252986602,3.34181
1281253046602,3.35698
1281253106601,3.31797
1281253166601,3.31873
1281253226601,3.34124
1281253286601,3.32554
1281253346602,3.31021
1281253406602,3.31878
1281253466602,3.31541
1281253526602,3.30874
1281253586602,3.31011
1281253646602,3.33330
1281253706602,3.33231
1281253766602,3.32249
1281253826601,3.30962
1281253886601,3.29179
1281253946601,3.34401
1281254006601,3.32735
1281254066601,3.33226
1281254126601,3.29707
1281254186601,3.31519
1281254246601,3.33736
1281254306601,3.31936
1281254366602,3.34548
1281254426610,3.30838
1281254486610,3.32020
1281254546610,3.27895
1281254606610,3.30558
1281254666610,3.28349
1281254726610,3.31408
1281254786610,3.32349
1281254846610,3.32011
1281254906610,3.34313
1281254966610,3.30939
1281255026610,3.32016
1281255086610,3.30324
1281255146610,3.30513
1281255206610,3.31640
1281255266610,3.31050
1281255326610,3.30787
1281255386610,3.32038
1281255446610,3.30669
1281255506610,3.28054
1281255566610,3.29749
1281255626610,3.30398
1281255686610,3.33105
1281255746610,3.31775
1281255806610,3.31358
1281255866610,3.32400
1281255926610,3.32382
1281255986610,3.29801
1281256046610,3.31040
1281256106610,3.30930
1281256166610,3.31975
1281256226610,3.29554
1281256286610,3.31348
1281256346610,3.34231
1281256406610,3.29903
1281256466610,3.31348
1281256526610,3.32950
1281256586610,3.30707
1281256646610,3.27617
1281256706610,3.31757
1281256766610,3.30000
1281256826610,3.30086
1281256886610,3.30721
1281256946610,3.32609
1281257006610,3.30755
1281257066610,3.31266
1281257126610,3.30940
1281257186610,3.35280
1281257246610,3.28734
1281257306610,3.34817
1281257366610,3.29772
1281257426610,3.31483
1281257486610,3.32311
1281257546610,3.30240
1281257606610,3.30487
1281257666610,3.31853
1281257726610,3.32040
1281257786610,3.32394
1281257846610,3.32453
1281257906610,3.31696
1281257966610,3.29580
1281258026619,3.31174
1281258086619,3.32408
1281258146619,3.31417
1281258206619,3.34078
1281258266619,3.29920
1281258326619,3.32026
1281258386619,3.30405
1281258446619,3.30904
1281258506619,3.30301
1281258566619,3.29826
1281258626619,3.31076
1281258686619,3.29854
1281258746619,3.31285
1281258806619,3.32504
1281258866619,3.32068
1281258926619,3.26902
1281258986619,3.32114
1281259046619,3.33984
1281259106619,3.31856
1281259166619,3.31555
1281259226619,3.29753
1281259286619,3.30697
1281259346619,3.31165
1281259406619,3.31302
1281259466619,3.31954
1281259526619,3.30667
1281259586619,3.30993
1281259646619,3.31407
1281259706619,3.33285
1281259766619,3.33532
1281259826619,3.32747
1281259886619,3.31559
1281259946619,3.29532
1281260006619,3.32316
1281260066619,3.30018
1281260126619,3.34555
1281260186619,3.29620
1281260246619,3.29303
1281260306619,3.32557
1281260366619,3.32702
1281260426619,3.33255
1281260486619,3.29238
1281260546619,3.31037
1281260606619,3.35426
1281260666619,3.30717
1281260726619,3.32355
1281260786619,3.36747
1281260846619,3.32369
1281260906619,3.33362
1281260966619,3.32675
1281261026619,3.34569
1281261086619,3.33691
1281261146619,3.33523
1281261206619,3.32501
1281261266619,3.34522
1281261326619,3.31567
1281261386619,3.31177
1281261446619,3.30827
1281261506619,3.33797
1281261566619,3.33155
1281261626628,3.30752
1281261686628,3.32386
1281261746628,3.33673
1281261806628,3.32790
1281261866628,3.32772
1281261926628,3.32881
1281261986628,3.36705
1281262046628,3.32113
1281262106628,3.33919
1281262166628,3.32483
1281262226628,3.37236
1281262286628,3.32699
1281262346628,3.34289
1281262406628,3.33545
1281262466628,3.31775
1281262526628,3.34122
1281262586628,3.35160
1281262646628,3.35434
1281262706628,3.35012
1281262766628,3.36731
1281262826628,3.33672
1281262886628,3.33023
1281262946628,3.35582
1281263006628,3.33214
1281263066628,3.32055
1281263126628,3.34212
1281263186628,3.33238
1281263246628,3.33349
1281263306628,3.32055
1281263366628,3.31845
1281263426628,3.34676
1281263486628,3.36178
1281263546628,3.34733
1281263606628,3.36199
1281263666628,3.33105
1281263726628,3.32501
1281263786628,3.33508
1281263846628,3.35536
1281263906628,3.35061
1281263966628,3.32771
1281264026628,3.36336
1281264086628,3.32477
1281264146628,3.31324
1281264206628,3.32288
1281264266628,3.29207
1281264326628,3.30097
1281264386628,3.32885
1281264446628,3.33014
1281264506628,3.32701
1281264566628,3.32327
1281264626628,3.31880
1281264686628,3.34785
1281264746628,3.34211
1281264806628,3.31714
1281264866628,3.29191
1281264926628,3.32538
1281264986628,3.33076
1281265046628,3.33414
1281265106628,3.34604
1281265166628,3.33587
1281265226637,3.32642
1281265286637,3.34223
1281265346637,3.32067
1281265406637,3.30837
1281265466637,3.31625
1281265526637,3.35253
1281265586637,3.31202
1281265646637,3.34515
1281265706637,3.31664
1281265766637,3.32780
1281265826637,3.33537
1281265886637,3.31460
1281265946637,3.32105
1281266006637,3.31976
1281266066637,3.32128
1281266126637,3.31169
1281266186637,3.33002
1281266246637,3.30718
1281266306637,3.33794
1281266366637,3.35571
1281266426637,3.29557
1281266486637,3.32247
1281266546637,3.34071
1281266606637,3.33261
1281266666637,3.34354
1281266726637,3.35978
1281266786637,3.31559
1281266846637,3.35507
1281266906637,3.35051
1281266966637,3.34866
1281267026637,3.33862
1281267086637,3.30660
1281267146637,3.34242
1281267206637,3.29035
1281267266637,3.31257
1281267326637,3.32916
1281267386637,3.33892
1281267446637,3.34015
1281267506637,3.33853
1281267566637,3.31181
1281267626637,3.33741
1281267686637,3.34216
1281267746637,3.32301
1281267806637,3.31176
1281267866637,3.36789
1281267926637,3.34208
1281267986637,3.34395
1281268046637,3.33183
1281268106637,3.32290
1281268166637,3.30692
1281268226637,3.33421
1281268286637,3.35912
1281268346637,3.33936
1281268406637,3.33148
1281268466637,3.32103
1281268526637,3.33345
1281268586637,3.34055
1281268646637,3.35109
1281268706637,3.34582
1281268766637,3.34664
1281268826646,3.33777
1281268886645,3.35199
1281268946645,3.33209
1281269006646,3.36594
1281269066646,3.34617
1281269126646,3.34660
1281269186646,3.32393
1281269246646,3.34205
1281269306646,3.32887
1281269366646,3.31248
1281269426646,3.33245
1281269486646,3.32335
1281269546646,3.30958
1281269606646,3.34831
1281269666646,3.31499
1281269726646,3.36508
1281269786646,3.37080
1281269846646,3.35330
1281269906646,3.35754
1281269966646,3.34149
1281270026646,3.33972
1281270086646,3.34331
1281270146646,3.36941
1281270206646,3.34200
1281270266645,3.35101
1281270326646,3.35377
1281270386646,3.35159
1281270446646,3.36480
1281270506646,3.36814
1281270566646,3.34807
1281271826646,3.35045
1281271886646,3.33744
1281271946646,3.35442
1281272006646,3.36258
1281272066646,3.36466
1281272126646,3.39022
1281272186646,3.34724
1281272246646,3.32389
1281272306646,3.37029
1281272366646,3.34527
1281272426655,3.33750
1281272486655,3.35798
1281272546655,3.35087
1281272606655,3.36293
1281272666655,3.36778
1281272726655,3.35920
1281272786655,3.36666
1281272846655,3.35915
1281272906655,3.39317
1281272966655,3.36419
1281273026655,3.35263
1281273086655,3.35929
1281273146655,3.33261
1281273206655,3.33899
1281273266655,3.33768
1281273326655,3.35416
1281273386655,3.35098
1281273446655,3.30697
1281273506655,3.33636
1281273566655,3.31707
1281273626655,3.33634
1281273686655,3.34457
1281273746655,3.31011
1281273806655,3.34782
1281273866655,3.35010
1281273926655,3.31933
1281273986655,3.33870
1281274046655,3.31091
1281274106655,3.37343
1281274166655,3.34353
1281274226655,3.33522
1281274286655,3.33318
1281274346655,3.35163
1281274406655,3.34925
1281274466655,3.34939
1281274526655,3.35563
1281274586655,3.35628
1281274646655,3.34676
1281274706655,3.34856
1281274766655,3.33843
1281274826655,3.34251
1281274886655,3.35086
1281274946655,3.32352
1281275006655,3.33802
1281275066655,3.35297
1281275126655,3.35266
1281275186655,3.33633
1281275246655,3.37376
1281275306655,3.36016
1281275366655,3.36047
1281275426655,3.35167
1281275486655,3.37542
1281275546655,3.35463
1281275606655,3.33793
1281275666655,3.37704
1281275726655,3.36118
1281275786655,3.34573
1281275846655,3.32782
1281275906655,3.36313
1281275966655,3.38678
1281276026664,3.35372
1281276086664,3.31741
1281276146664,3.29453
1281276206664,3.35407
1281276266664,3.35656
1281276326664,3.35057
1281276386664,3.35555
1281276446664,3.35376
1281276506664,3.34796
1281276566664,3.34294
1281276626664,3.32328
1281276686664,3.33168
1281276746664,3.36219
1281276806664,3.35013
1281276866664,3.34399
1281276926664,3.36469
1281276986664,3.40144
1281277046664,3.33888
1281277106664,3.35695
1281277166664,3.37333
1281277226664,3.37446
1281277286664,3.37366
1281277346664,3.33934
1281277406664,3.37247
1281277466664,3.38709
1281277526664,3.34842
1281277586664,3.32226
1281277646664,3.30625
1281277706664,3.35602
1281277766664,3.35850
1281277826664,3.38213
1281277886664,3.35570
1281277946664,3.38025
1281278006664,3.30195
1281278066664,3.37456
1281278126664,3.29350
1281278186664,3.31171
1281278246664,3.34136
1281278306664,3.35269
1281278366664,3.31408
1281278426664,3.35987
1281278486664,3.32998
1281278546664,3.33304
1281278606664,3.32861
1281278666664,3.36888
1281278726664,3.31216
1281278786664,3.33433
1281278846664,3.33839
1281278906664,3.29080
1281278966664,3.32678
1281279026664,3.32999
1281279086664,3.33624
1281279146664,3.32340
1281279206664,3.33311
1281279266664,3.32349
1281279326664,3.31813
1281279386664,3.33625
1281279446664,3.33373
1281279506664,3.32587
1281279566664,3.32973
1281279626674,3.32428
1281279686674,3.34096
1281279746674,3.33163
1281279806674,3.36170
1281279866674,3.30406
1281279926674,3.29507
1281279986674,3.32215
1281280046674,3.33601
1281280106674,3.34703
1281280166674,3.33943
1281280226674,3.34469
1281280286674,3.31525
1281280346674,3.31944
1281280406674,3.29676
1281280466674,3.32662
1281280526674,3.33023
1281280586674,3.31106
1281280646674,3.30914
1281280706674,3.35543
1281280766674,3.29457
1281280826674,3.34167
1281280886674,3.34076
1281280946674,3.33238
1281281006674,3.31285
1281281066674,3.31399
1281281126674,3.32448
1281281186674,3.31944
1281281246674,3.30746
1281281306674,3.31136
1281281366674,3.30308
1281281426674,3.30184
1281281486674,3.35448
1281281546674,3.32771
1281281606674,3.31448
1281281666674,3.34379
1281281726674,3.32436
1281281786674,3.32631
1281281846674,3.31387
1281281906674,3.31561
1281281966674,3.33191
1281282026674,3.33251
1281282086674,3.34458
1281282146674,3.30881
1281282206674,3.31703
1281282266674,3.32694
1281282326674,3.30495
1281282386674,3.33292
1281282446674,3.33009
1281282506674,3.30477
1281282566674,3.31352
1281282626674,3.31230
1281282686674,3.37994
1281282746674,3.32692
1281282806674,3.35278
1281282866674,3.33766
1281282926674,3.32104
1281282986674,3.30398
1281283046674,3.33019
1281283106674,3.33601
1281283166674,3.29699
1281283226684,3.33069
1281283286684,3.31193
1281283346684,3.33078
1281283406684,3.30825
1281283466684,3.31354
1281283526684,3.26415
1281283586684,3.32530
1281283646684,3.31036
1281283706684,3.31465
1281283766684,3.29884
1281283826684,3.30106
1281283886684,3.34072
1281283946684,3.30154
1281284006684,3.29345
1281284066684,3.28318
1281284126684,3.32293
1281284186684,3.28514
1281284246684,3.32080
1281284306684,3.31201
1281284366684,3.29777
1281284426684,3.31041
1281284486684,3.32114
1281284546684,3.31325
1281284606684,3.30372
1281284666684,3.32873
1281284726684,3.29162
1281284786684,3.32583
1281284846684,3.28872
1281284906684,3.34362
1281284966684,3.28869
1281285026684,3.29634
1281285086684,3.29136
1281285146684,3.30958
1281285206684,3.28488
1281285266684,3.33680
1281285326684,3.29018
1281285386684,3.29654
1281285446684,3.36389
1281285506684,3.29095
1281285566684,3.30447
1281285626684,3.29813
1281285686684,3.27686
1281285746684,3.32392
1281285806684,3.30116
1281285866684,3.31633
1281285926684,3.30661
1281285986684,3.32369
1281286046684,3.33554
1281286106684,3.27775
1281286166684,3.29112
1281286226684,3.34120
1281286286684,3.31975
1281286346684,3.33698
1281286406684,3.29586
1281286466684,3.32613
1281286526684,3.32437
1281286586684,3.29936
1281286646684,3.34573
1281286706684,3.32109
1281286766684,3.30823
1281286826694,3.34357
1281286886694,3.32886
1281286946694,3.31664
1281287006694,3.28100
1281287066694,3.31326
1281287126694,3.31435
1281287186694,3.31108
1281287246694,3.31338
1281287306694,3.30556
1281287366694,3.30863
1281287426694,3.31461
1281287486694,3.32273
1281287546694,3.32715
1281287606694,3.33923
1281287666694,3.34176
1281287726694,3.34042
1281287786694,3.32069
1281287846694,3.32252
1281287906694,3.33219
1281287966694,3.31565
1281288026694,3.31048
1281288086694,3.33701
1281288146694,3.33721
1281288206694,3.31045
1281288266694,3.27736
1281288326694,3.30147
1281288386694,3.33723
1281288446694,3.31835
1281288506694,3.31297
1281288566694,3.31155
1281288626694,3.29897
1281288686694,3.32874
1281288746694,3.34879
1281288806694,3.31505
1281288866694,3.32797
1281288926694,3.33130
1281288986694,3.29826
1281289046694,3.36858
1281289106694,3.32723
1281289166694,3.33748
1281289226694,3.33305
1281289286694,3.30608
1281289346694,3.35921
1281289406694,3.32060
1281289466694,3.34700
1281289526694,3.33131
1281289586694,3.35295
1281289646694,3.33079
1281289706694,3.35223
1281289766694,3.34516
1281289826694,3.36190
1281289886694,3.34986
1281289946694,3.33736
1281290006694,3.33587
1281290066694,3.33134
1281290126694,3.30784
1281290186694,3.34110
1281290246694,3.32262
1281290306694,3.32253
1281290366694,3.35878
1281290426705,3.35068
1281290486705,3.33929
1281290546705,3.35905
1281290606705,3.32473
1281290666705,3.30050
1281290726705,3.31164
1281290786705,3.34793
1281290846705,3.35144
1281290906705,3.30836
1281290966705,3.34958
1281291026705,3.31385
1281291086705,3.32579
1281291146705,3.35582
1281291206705,3.31269
1281291266705,3.34840
1281291326705,3.34203
1281291386705,3.34353
1281291446705,3.35082
1281291506705,3.38316
1281291566705,3.31797
1281291626705,3.33671
1281291686705,3.33199
1281291746705,3.35962
1281291806705,3.32370
1281291866705,3.33658
1281291926705,3.33017
1281291986705,3.34308
1281292046705,3.31485
1281292106705,3.36708
1281292166705,3.33295